TimeEST,TemperatureF,Dew PointF,Humidity,Sea Level PressureIn,VisibilityMPH,Wind Direction,Wind SpeedMPH,Gust SpeedMPH,PrecipitationIn,Events,Conditions,WindDirDegrees,DateUTC
12:14 AM,28.0,22.8,81,30.25,10.0,NW,10.4,-,N/A,,Overcast,310,2013-03-07 05:14:00
12:34 AM,28.0,23.0,81,30.25,10.0,NW,9.2,-,N/A,Snow,Light Snow,320,2013-03-07 05:34:00
12:55 AM,26.2,21.2,81,30.25,10.0,NNW,4.6,-,N/A,,Overcast,330,2013-03-07 05:55:00
1:14 AM,25.5,20.5,81,30.26,10.0,WNW,10.4,-,N/A,Snow,Light Snow,290,2013-03-07 06:14:00
1:34 AM,25.5,20.3,81,30.26,10.0,WNW,9.2,-,N/A,Snow,Light Snow,300,2013-03-07 06:34:00
1:55 AM,25.5,19.9,79,30.27,10.0,NW,4.6,-,N/A,,Overcast,320,2013-03-07 06:55:00
2:14 AM,25.5,20.3,81,30.27,10.0,WNW,4.6,-,N/A,,Overcast,300,2013-03-07 07:14:00
2:34 AM,25.5,20.5,81,30.27,10.0,WNW,9.2,-,N/A,,Overcast,290,2013-03-07 07:34:00
2:55 AM,25.5,20.5,81,30.28,10.0,NNW,6.9,-,N/A,,Overcast,330,2013-03-07 07:55:00
3:14 AM,24.8,19.8,81,30.28,10.0,NW,5.8,-,N/A,,Overcast,320,2013-03-07 08:14:00
3:34 AM,24.6,19.6,81,30.28,10.0,NNW,4.6,-,N/A,,Overcast,340,2013-03-07 08:34:00
3:55 AM,24.6,19.4,81,30.28,10.0,NW,5.8,-,N/A,,Overcast,310,2013-03-07 08:55:00
4:14 AM,24.8,19.2,79,30.28,10.0,NNW,8.1,-,N/A,,Overcast,330,2013-03-07 09:14:00
4:34 AM,24.6,19.0,79,30.28,10.0,NW,4.6,-,N/A,,Overcast,320,2013-03-07 09:34:00
4:55 AM,24.6,19.0,79,30.29,10.0,Calm,Calm,-,N/A,,Overcast,0,2013-03-07 09:55:00
5:14 AM,24.1,18.3,79,30.29,10.0,WNW,3.5,-,N/A,,Mostly Cloudy,290,2013-03-07 10:14:00
5:34 AM,23.0,17.6,80,30.29,10.0,Calm,Calm,-,N/A,,Scattered Clouds,0,2013-03-07 10:34:00
5:55 AM,23.0,18.0,81,30.29,10.0,West,3.5,-,N/A,,Overcast,280,2013-03-07 10:55:00
6:14 AM,23.4,18.0,80,30.30,10.0,NW,3.5,-,N/A,,Overcast,310,2013-03-07 11:14:00
6:34 AM,23.5,18.0,79,30.30,10.0,NW,5.8,-,N/A,,Overcast,320,2013-03-07 11:34:00
6:55 AM,23.9,18.3,79,30.31,10.0,NW,5.8,-,N/A,,Overcast,320,2013-03-07 11:55:00
7:14 AM,24.4,18.5,78,30.31,10.0,WNW,3.5,-,N/A,,Overcast,300,2013-03-07 12:14:00
7:34 AM,24.3,18.5,79,30.32,10.0,NNW,4.6,-,N/A,,Overcast,330,2013-03-07 12:34:00
7:55 AM,24.6,18.5,78,30.33,10.0,NW,3.5,-,N/A,,Overcast,310,2013-03-07 12:55:00
8:14 AM,24.6,18.1,76,30.34,10.0,NNW,4.6,-,N/A,,Overcast,340,2013-03-07 13:14:00
8:34 AM,24.8,17.2,73,30.34,10.0,WNW,6.9,-,N/A,,Overcast,290,2013-03-07 13:34:00
8:55 AM,25.0,16.9,71,30.35,10.0,NNW,6.9,-,N/A,,Overcast,330,2013-03-07 13:55:00
9:14 AM,25.5,16.9,70,30.35,10.0,WNW,6.9,-,N/A,,Overcast,300,2013-03-07 14:14:00
9:34 AM,25.5,16.7,69,30.35,10.0,WNW,5.8,-,N/A,Snow,Light Snow,290,2013-03-07 14:34:00
9:55 AM,25.5,16.5,69,30.35,10.0,WNW,9.2,-,N/A,,Overcast,290,2013-03-07 14:55:00
10:14 AM,25.5,16.7,69,30.35,10.0,West,8.1,-,N/A,,Overcast,270,2013-03-07 15:14:00
10:34 AM,25.9,16.9,69,30.35,10.0,West,5.8,-,N/A,,Overcast,280,2013-03-07 15:34:00
10:55 AM,28.0,18.5,67,30.36,10.0,West,5.8,-,N/A,,Overcast,280,2013-03-07 15:55:00
11:14 AM,28.0,19.0,69,30.36,10.0,West,9.2,-,N/A,,Overcast,270,2013-03-07 16:14:00
11:34 AM,28.0,19.4,70,30.36,10.0,WNW,8.1,-,N/A,,Overcast,300,2013-03-07 16:34:00
11:54 AM,28.0,19.9,72,30.36,10.0,NW,6.9,-,N/A,,Overcast,310,2013-03-07 16:54:00
12:14 PM,28.0,19.4,70,30.36,10.0,WNW,6.9,-,N/A,,Overcast,290,2013-03-07 17:14:00
12:34 PM,28.0,19.4,70,30.36,10.0,Calm,Calm,-,N/A,,Overcast,0,2013-03-07 17:34:00
12:51 PM,28.0,19.0,69,30.36,10.0,NW,5.8,-,N/A,,Overcast,320,2013-03-07 17:51:00
1:18 PM,28.4,17.6,64,30.36,10.0,WNW,3.5,-,N/A,,Overcast,300,2013-03-07 18:18:00
1:44 PM,28.4,17.6,64,30.35,10.0,WNW,4.6,-,N/A,,Overcast,290,2013-03-07 18:44:00
1:57 PM,28.4,17.6,64,30.35,10.0,NNW,3.5,-,N/A,,Overcast,340,2013-03-07 18:57:00
2:19 PM,28.4,19.4,69,30.36,10.0,NW,3.5,-,N/A,,Overcast,310,2013-03-07 19:19:00
2:39 PM,28.4,19.4,69,30.36,10.0,West,6.9,-,N/A,,Overcast,280,2013-03-07 19:39:00
2:58 PM,28.4,17.6,64,30.36,10.0,WNW,4.6,-,N/A,,Overcast,300,2013-03-07 19:58:00
3:18 PM,28.4,19.4,69,30.37,10.0,NNW,3.5,-,N/A,,Overcast,340,2013-03-07 20:18:00
3:38 PM,28.4,19.4,69,30.37,10.0,WNW,6.9,-,N/A,,Overcast,300,2013-03-07 20:38:00
3:58 PM,28.4,19.4,69,30.38,10.0,WNW,4.6,-,N/A,,Overcast,290,2013-03-07 20:58:00
4:18 PM,28.4,19.4,69,30.38,10.0,WNW,5.8,-,N/A,,Overcast,290,2013-03-07 21:18:00
4:22 PM,28.2,19.4,70,30.38,10.0,West,5.8,-,N/A,,Overcast,260,2013-03-07 21:22:00
4:35 PM,28.2,19.4,70,30.38,10.0,WNW,6.9,-,N/A,,Overcast,300,2013-03-07 21:35:00
4:54 PM,28.2,19.4,70,30.38,10.0,West,8.1,-,N/A,,Overcast,280,2013-03-07 21:54:00
5:14 PM,28.0,20.3,73,30.39,10.0,WSW,4.6,-,N/A,,Overcast,250,2013-03-07 22:14:00
5:34 PM,28.0,20.5,73,30.39,10.0,WSW,5.8,-,N/A,,Overcast,250,2013-03-07 22:34:00
5:54 PM,28.0,20.1,72,30.39,10.0,Calm,Calm,-,N/A,,Overcast,0,2013-03-07 22:54:00
6:14 PM,28.0,19.6,71,30.39,10.0,NNW,3.5,-,N/A,,Overcast,330,2013-03-07 23:14:00
6:34 PM,28.0,19.4,70,30.40,10.0,NNW,3.5,-,N/A,,Overcast,340,2013-03-07 23:34:00
6:54 PM,28.2,19.4,70,30.40,10.0,Calm,Calm,-,N/A,,Overcast,0,2013-03-07 23:54:00
8:34 PM,28.0,20.1,72,30.41,10.0,Calm,Calm,-,N/A,,Overcast,0,2013-03-08 01:34:00
8:54 PM,28.0,20.3,73,30.42,10.0,Calm,Calm,-,N/A,,Overcast,0,2013-03-08 01:54:00
9:15 PM,28.0,20.3,73,30.42,10.0,WNW,3.5,-,N/A,,Overcast,300,2013-03-08 02:15:00
9:34 PM,28.0,20.3,73,30.42,10.0,Calm,Calm,-,N/A,,Overcast,0,2013-03-08 02:34:00
9:54 PM,28.0,20.8,74,30.42,10.0,Calm,Calm,-,N/A,,Overcast,0,2013-03-08 02:54:00
10:15 PM,28.0,20.7,74,30.42,10.0,Calm,Calm,-,N/A,,Overcast,0,2013-03-08 03:15:00
10:34 PM,28.0,20.8,74,30.42,10.0,Calm,Calm,-,N/A,,Overcast,0,2013-03-08 03:34:00
10:54 PM,28.0,22.1,78,30.42,10.0,Calm,Calm,-,N/A,,Overcast,0,2013-03-08 03:54:00
11:15 PM,28.0,22.3,79,30.42,10.0,Calm,Calm,-,N/A,,Overcast,0,2013-03-08 04:15:00
11:34 PM,27.0,21.7,81,30.42,10.0,Calm,Calm,-,N/A,,Overcast,0,2013-03-08 04:34:00
11:54 PM,25.9,21.4,83,30.42,10.0,Calm,Calm,-,N/A,,Mostly Cloudy,0,2013-03-08 04:54:00